User: anonymous   Login
Location: Irma
(52.9170°N, 111.2330°W)
Time: 15:10:05
(UTC-07:00)
Language:

Meteor 1-24 Rocket - Orbit

View from above orbital plane
View from above orbital plane
View from above satellite
View from above satellite

Ground track
Ground track

The orbit data is extracted from the following two-line orbital elements,

1  8800U 76032B   18049.92379552 +.00000024 +00000-0 +60471-5 0  9997
2  8800 081.2540 337.3039 0094537 206.6019 153.0286 14.10106436152759
Epoch (UTC): 18 February 2018 22:10:15
Eccentricity: 0.0094537
inclination: 81.2540°
perigee height: 790 km
apogee height: 927 km
right ascension of ascending node: 337.3039°
argument of perigee: 206.6019°
revolutions per day: 14.10106436
mean anomaly at epoch: 153.0286°
orbit number at epoch: 15275

The dashed part of the orbit path shows where the satellite is in the earth's shadow,  

DLR